Tracking 27188 objects as of 1-Apr-2023
HD Live streaming from Space Station
objects crossing your sky now

STARLINK-5440

Track STARLINK-5440 now!
10-day predictions
STARLINK-5440 is classified as:


NORAD ID: 54785
Int'l Code: 2022-175AD
Perigee: 355.8 km
Apogee: 357.9 km
Inclination: 53.2 °
Period: 91.5 minutes
Semi major axis: 6727 km
RCS: Unknown
Launch date: December 17, 2022
Source: United States (US)
Launch site: AIR FORCE EASTERN TEST RANGE (AFETR)
Your satellite tracking list
Your tracking list is empty




NASA's NSSDC Master Catalog

Two Line Element Set (TLE):
1 54785U 22175AD  23090.56216088 -.00000036  00000-0  41622-5 0  9996
2 54785  53.2153 152.3815 0001572 125.9983 234.1183 15.73219649 16070
Source of the keplerian elements: AFSPC